Tracking 26442 objects as of 7-Dec-2022
HD Live streaming from Space Station
objects crossing your sky now

NOAA 16 DEB

Track NOAA 16 DEB now!
10-day predictions


NORAD ID: 41292
Int'l Code: 2000-055GU
Perigee: 766.5 km
Apogee: 838.3 km
Inclination: 99.0 °
Period: 100.8 minutes
Semi major axis: 7173 km
RCS: Unknown
Launch date: September 21, 2000
Source: United States (US)
Launch site: AIR FORCE WESTERN TEST RANGE (AFWTR)

Note: This is SATELLITE DEBRIS
aabbcc
Your satellite tracking list
Your tracking list is empty




NASA's NSSDC Master Catalog

Two Line Element Set (TLE):
1 41292U 00055GU  22340.87928429  .00004146  00000-0  16358-2 0  9998
2 41292  98.9736 126.6595 0050052 246.1094 113.4838 14.28958180362010
Source of the keplerian elements: AFSPC